TimePST,TemperatureF,Dew PointF,Humidity,Sea Level PressureIn,VisibilityMPH,Wind Direction,Wind SpeedMPH,Gust SpeedMPH,PrecipitationIn,Events,Conditions,WindDirDegrees,DateUTC
12:53 AM,37.0,35.1,93,30.05,10.0,Calm,Calm,-,N/A,,Clear,0,2013-03-08 08:53:00
1:53 AM,36.0,34.0,93,30.05,10.0,Calm,Calm,-,N/A,,Clear,0,2013-03-08 09:53:00
2:53 AM,35.1,34.0,96,30.05,10.0,NNE,5.8,-,N/A,,Clear,30,2013-03-08 10:53:00
3:53 AM,35.1,34.0,96,30.05,10.0,North,5.8,-,N/A,,Clear,10,2013-03-08 11:53:00
4:53 AM,35.1,34.0,96,30.06,10.0,Calm,Calm,-,N/A,,Clear,0,2013-03-08 12:53:00
5:53 AM,33.1,32.0,96,30.06,10.0,NNE,3.5,-,N/A,,Clear,30,2013-03-08 13:53:00
6:33 AM,33.8,32.0,93,30.06,8.0,North,5.8,-,N/A,,Scattered Clouds,10,2013-03-08 14:33:00
6:42 AM,35.6,33.8,93,30.06,5.0,North,5.8,-,N/A,,Mostly Cloudy,360,2013-03-08 14:42:00
6:53 AM,35.1,35.1,100,30.07,3.0,NNE,5.8,-,N/A,,Overcast,20,2013-03-08 14:53:00
7:38 AM,37.4,35.6,93,30.07,4.0,Calm,Calm,-,N/A,,Scattered Clouds,0,2013-03-08 15:38:00
7:53 AM,37.9,36.0,93,30.07,7.0,NE,3.5,-,N/A,,Clear,40,2013-03-08 15:53:00
8:18 AM,39.2,37.4,93,30.08,9.0,Calm,Calm,-,N/A,,Partly Cloudy,0,2013-03-08 16:18:00
8:53 AM,41.0,37.0,86,30.08,10.0,NE,5.8,-,N/A,,Partly Cloudy,40,2013-03-08 16:53:00
9:53 AM,44.1,36.0,73,30.09,10.0,NNE,6.9,-,N/A,,Partly Cloudy,30,2013-03-08 17:53:00
10:53 AM,48.0,37.0,66,30.08,10.0,NNE,5.8,-,N/A,,Clear,30,2013-03-08 18:53:00
11:53 AM,50.0,36.0,59,30.08,10.0,ENE,4.6,-,N/A,,Clear,70,2013-03-08 19:53:00
12:53 PM,54.0,35.1,49,30.06,10.0,NNE,6.9,-,N/A,,Clear,20,2013-03-08 20:53:00
1:53 PM,55.9,34.0,44,30.05,10.0,Variable,3.5,-,N/A,,Clear,0,2013-03-08 21:53:00
2:53 PM,57.9,32.0,37,30.05,10.0,Variable,4.6,-,N/A,,Clear,0,2013-03-08 22:53:00
3:53 PM,59.0,33.1,38,30.06,10.0,Variable,4.6,-,N/A,,Clear,0,2013-03-08 23:53:00
4:53 PM,59.0,30.0,33,30.06,10.0,NNW,4.6,-,N/A,,Clear,340,2013-03-09 00:53:00
5:53 PM,55.9,33.1,42,30.08,10.0,NE,3.5,-,N/A,,Clear,50,2013-03-09 01:53:00
6:53 PM,51.1,33.1,50,30.11,10.0,NNE,5.8,-,N/A,,Clear,30,2013-03-09 02:53:00
7:53 PM,46.9,33.1,59,30.14,10.0,Calm,Calm,-,N/A,,Clear,0,2013-03-09 03:53:00
8:53 PM,44.1,33.1,65,30.17,10.0,Calm,Calm,-,N/A,,Clear,0,2013-03-09 04:53:00
9:53 PM,44.1,33.1,65,30.19,10.0,Calm,Calm,-,N/A,,Clear,0,2013-03-09 05:53:00
10:53 PM,41.0,34.0,76,30.22,10.0,SE,3.5,-,N/A,,Clear,140,2013-03-09 06:53:00
11:53 PM,39.9,35.1,83,30.23,10.0,Calm,Calm,-,N/A,,Clear,0,2013-03-09 07:53:00